www.pogodaiklimat.ru
ПОГОДА в Роме
Время
и дата
09:52 26.05
10:52 26.05
11:52 26.05
12:52 26.05
13:52 26.05
14:52 26.05
15:52 26.05
16:52 26.05
17:52 26.05
18:52 26.05
19:52 26.05
20:52 26.05
21:52 26.05
22:52 26.05
23:52 26.05
00:52 27.05
01:52 27.05
02:52 27.05
03:52 27.05
04:52 27.05
05:52 27.05
06:52 27.05
07:52 27.05
08:52 27.05
09:52 27.05
10:52 27.05
11:52 27.05
12:52 27.05
13:52 27.05
14:52 27.05
16:52 27.05
17:52 27.05
18:52 27.05
19:52 27.05
20:52 27.05
21:52 27.05
22:52 27.05
23:52 27.05
00:52 28.05
01:52 28.05
02:52 28.05
03:52 28.05
04:52 28.05
05:52 28.05
06:52 28.05
07:52 28.05
08:52 28.05
09:52 28.05
Ветер
(напр.,м/с)
Видим. Явления Облачность Т
(С)
Тd
(С)
f
(%)
Тe
(С)
Тes
(С)
Комфортность P
(гПа)
Po
(гПа)
Тmin
(С)
Tmax
(С)
R
(мм)
R24
(мм)
S
(см)
нст 2 н/о н/о +15.6 -1.1 32 +16 +16 1016.9 878.0
нст 3 н/о н/о +17.8 -2.2 26 +18 +18 1016.6 878.0 -1.1 +18.3
нст 2 н/о н/о +20.0 -2.2 22 +21 +21 комфорт 1016.3 877.7
нст 3 н/о н/о +21.7 -2.2 20 +21 +21 комфорт 1016.3 877.4
З 5
{8}
н/о н/о +22.8 -3.3 17 +21 +21 комфорт 1016.1 877.1
З 5
{8}
н/о н/о +23.3 -3.3 17 +22 +22 комфорт 1015.9 877.1
СЗ 2 н/о н/о +23.9 -3.3 16 +22 +22 комфорт 1015.6 876.8
С 2 н/о н/о +23.3 -3.3 17 +22 +22 комфорт 1015.7 876.5 +17.2 +25.0
СВ 4
{9}
н/о н/о +23.3 -2.2 18 +22 +22 комфорт 1015.5 876.5
СВ 6
{10}
н/о н/о +22.2 -1.7 20 +21 +21 комфорт 1015.1 876.5
СВ 5 н/о н/о +20.0 -0.6 25 +20 +20 1015.2 876.8
В 4 н/о н/о +14.4 -0.6 36 +13 +13 1016.3 877.4
В 4 н/о н/о +13.9 -0.6 37 +13 +13 1016.8 878.0
ЮВ 4 н/о н/о +13.3 -0.6 38 +12 +12 1016.6 878.0 +12.2 +24.4
З 2 н/о н/о +10.6 -0.6 46 +10 +10 1016.8 878.3
СЗ 2 н/о н/о +8.3 -1.7 49 +7 +7 1017.2 878.6
СВ 2 н/о н/о +10.0 -0.6 48 +9 +9 1016.8 878.6
СВ 3 н/о н/о +6.7 0.0 62 +4 +4 1017.4 878.6
В 3 н/о н/о +5.6 0.0 67 +3 +3 1017.5 878.9
В 2 н/о н/о +4.4 0.0 73 +2 +2 1018.0 878.9 +3.3 +13.9
В 2 н/о н/о +4.4 0.0 73 +2 +2 1018.5 879.4
СВ 2 н/о н/о +9.4 +1.7 59 +8 +8 1018.2 879.4
СВ 3 н/о н/о +12.2 +2.2 50 +11 +11 1018.5 879.7
СВ 4 н/о н/о +17.2 +2.8 38 +17 +17 1018.5 879.7
В 5 н/о н/о +21.7 +2.2 28 +22 +22 комфорт 1017.6 879.4
С 6
{9}
н/о н/о +23.9 +2.2 24 +23 +23 комфорт 1016.8 879.2 +2.2 +23.9
СВ 5
{8}
н/о н/о +26.1 0.0 18 +24 +24 комфорт 1015.9 878.0
нст 2 н/о н/о +27.2 0.0 17 +25 +25 комфорт 1015.3 877.4
ЮЗ 4 н/о н/о +28.3 0.0 16 +26 +26 жарко 1014.3 877.1
С 4
{8}
н/о н/о +29.4 -0.6 14 +27 +27 жарко 1014.0 876.5
н/о н/о +29.4 -1.7 13 +26 +26 жарко 1013.2 875.7 +23.9 +29.4
СВ 2 н/о н/о +28.9 -1.7 14 +26 +26 жарко 1012.9 875.1
СВ 4 н/о н/о +27.8 -1.7 14 +25 +25 комфорт 1012.0 875.1
СВ 4 н/о н/о +22.8 -0.6 21 +22 +22 комфорт 1012.4 875.1
В 4 н/о н/о +20.0 +1.7 30 +20 +20 1012.3 875.1
СЗ 3 н/о н/о +17.8 +1.7 34 +18 +18 1012.6 875.7
ЮВ 3
{8}
н/о н/о +15.6 +1.1 37 +15 +15 1012.5 875.7 +13.3 +29.4
нст 2
{10}
н/о н/о +20.6 -0.6 24 +21 +21 комфорт 1011.8 875.7
С 2 н/о н/о +17.2 0.0 31 +18 +18 1011.8 875.4
ЮВ 2 н/о н/о +12.8 -0.6 40 +12 +12 1011.9 875.4
Ю 5 н/о н/о +11.1 0.0 46 +9 +9 1012.1 875.4
Ю 3 н/о н/о +10.0 0.0 50 +8 +8 1011.9 875.1
Ю 4 н/о н/о +8.3 0.0 56 +6 +6 1012.3 875.4 +8.3 +21.1
Ю 4 н/о н/о +8.9 +0.6 56 +6 +6 1012.5 875.4
штиль 0 н/о н/о +13.9 +2.2 45 +14 +14 1012.2 875.7
штиль 0 н/о н/о +16.7 +1.7 36 +17 +17 1013.0 875.9
штиль 0 н/о н/о +18.3 +1.1 31 +18 +18 1013.1 875.9
нст 2 н/о н/о +22.8 +2.2 26 +22 +22 комфорт 1012.2 875.4
Местоположение метеостанции Rome State Airport: широта 42.5906 долгота -117.8644 высота над уровнем моря 1234 м.
В архиве по умолчанию представлена погода в Роме за последние 1-2 суток. Обновление информации о фактической погоде в базе происходит ежечасно! Архивные данные за месяц целиком и за предыдущие месяцы Вы можете получить, выбрав интересующий диапазон дат из раскрывающегося списка и нажав кнопку "Ввод!".
Внимание! Архив погоды МЕТАР в базе сайта по станциям, не включенным в климатический монитор, хранится не более 60 дней. Нет смысла пытаться выбрать более раннюю дату.
*Определитесь, кто Вы:
Внимание! Время в таблицах - местное (без учета летнего времени). Для получения всемирного времени необходимо вычесть поправку, которая равна -7 ч.
Смотрите также архив погоды в соседних городах и на ближайших метеорологических станциях:
Партнеры нашего сайта:      
Пояснения к столбцам:
  • Ветер - указаны скорость ветра в м/с - средняя за 10 мин, порывы в срок и между сроками (в фигурных скобках) и направление, откуда дует ветер: С - северный,
  • СВ - северо-восточный, В - восточный, ЮВ - юго-восточный, Ю - южный, ЮЗ - юго-западный, З - западный, СЗ - северо-западный.
  • Видимость - горизонтальная дальность видимости в метрах или километрах. При видимости от 1 до 10 км при отсутствии осадков обычно наблюдается дымка, при ухудшении видимости до 1 км и менее - туман. В сухую погоду видимость может ухудшаться дымом, пылью или мглою.
  • Явления - указаны атмосферные явления, наблюдавшиеся в срок или в последний час перед сроком; фигурными скобками обозначены явления, наблюдавшиеся между сроками (за 1-3 часа до срока); квадратными скобками обозначены град или гололедные отложения с указанием их диаметра в мм.
  • Облачность - указаны через наклонную черту общая и нижняя облачность в баллах и высота нижней границы облаков в метрах; квадратными скобками обозначены формы облаков: Ci - перистые, Cs - перисто-слоистые, Cc - перисто-кучевые, Ac - высококучевые, As - высокослоистые, Sc - слоисто-кучевые, Ns - слоисто-дождевые, Cu - кучевые, Cb - кучево-дождевые. Подробнее классификацию облаков см. в Атласе облаков (PDF).
  • T - Температура воздуха - температура, измеренная на высоте 2 м над землей.
  • Td - Температура точки росы - температура, при понижении до которой содержащийся в воздухе водяной пар достигнет насыщения.
  • f - Относительная влажность воздуха - влажноcть воздуха, измеренная на высоте 2 м над землей.
  • Te - Эффективная температура - температура, которую ощущает одетый по сезону человек в тени. Характеристика душности погоды. При расчете учитывается влияние влажности воздуха и скорости ветра на теплоощущения человека.
  • Tes - Эффективная температура на солнце - температура, которую ощущает человек, с поправкой на солнечный нагрев. Характеристика знойности погоды. Зависит от высоты солнца над горизонтом, облачности и скорости ветра. Ночью, в пасмурную погоду, а также при ветре 12 м/с и более поправка равна нулю.
  • P - Атмосферное давление - приведенное к уровню моря атмосферное давление.
  • Po - Атмосферное давление - измеренное на уровне метеостанции атмосферное давление.
  • Tmin - Минимальная температура - минимум температуры воздуха на высоте 2 м над землей.
  • Tmax - Максимальная температура - максимум температуры воздуха на высоте 2 м над землей.
  • R - Количество осадков - Количество выпавших осадков за период времени, мм. При наведении курсора мыши на число - период времени, за который выпало указанное количество осадков.
  • R24 - Количество осадков - Количество выпавших осадков за 24 часа, мм.
  • S - Снежный покров - Высота снежного покрова, см. При наведении курсора мыши на число - состояние снежного покрова и степень покрытия местности в баллах.